"startDT [UTC]","vpos","CH4 [ppm]","stdev(CH4) [ppm]","CO2 [ppm]","stdev(CO2) [ppm]","H2O_reported [%]","stdev(H2O_reported)","CavityPressure [torr]","CavityTemp [C]","OutletValve","CH4_dry [ppm]","CO2_dry [ppm]","DasTemp [C]","EtalonTemp [C]","WarmBoxTemp [C]","MPVPosition","T_ECpre [C]","T_EC1 [C]","T_EC2 [C]","p_inlet [hPa]","p_in [hPa]","p_out [hPa]","T_inlet [C]","RH_inlet [%]","dwpt_inlet [C]","T_vent [C]","RH_vent [%]","dwpt_vent [C]","flow_vent [l min-1]","flow_inlet [l min-1]","dwpt_sample [C]","T_room [C]"
2015-02-15 00:00:00,3.0,1.88612,0.03337,399.656,3.182,0.0355,0.0638,140.251,45.000,30895.47951,1.88964,400.042,31.589,45.068,45.000,0.00,0.10,-272.68,-272.75,-14,512,0,18.5,7.1,-17.9,19.0,7.9,-16.1,5.73,2.35,-14.1,24.1
2015-02-15 00:01:00,3.0,1.87640,0.00047,397.215,0.055,0.0066,0.0020,140.006,45.000,31096.91786,1.87651,397.251,31.587,45.068,45.000,0.00,0.10,-272.69,-272.75,-14,512,0,18.5,7.1,-17.9,19.0,7.9,-16.1,5.73,2.43,-14.1,24.1
2015-02-15 00:02:00,3.0,1.87652,0.00042,397.253,0.090,0.0068,0.0025,140.004,45.000,31154.56916,1.87666,397.281,31.589,45.068,45.000,0.00,0.10,-272.69,-272.75,-14,512,0,18.5,7.1,-17.9,19.0,7.9,-16.2,5.73,2.49,-14.1,24.1
2015-02-15 00:03:00,3.0,1.87624,0.00033,397.535,0.056,0.0066,0.0020,140.002,45.000,31200.26831,1.87636,397.562,31.602,45.068,45.000,0.00,0.10,-272.68,-272.74,-14,512,0,18.5,7.1,-17.9,19.0,7.9,-16.2,5.73,2.53,-14.1,24.1
2015-02-15 00:04:00,3.0,1.87654,0.00037,397.650,0.040,0.0054,0.0024,140.003,45.000,31240.83839,1.87663,397.674,31.614,45.068,45.000,0.00,0.10,-272.69,-272.75,-13,513,0,18.4,7.1,-17.9,18.9,7.9,-16.2,5.73,2.50,-14.1,24.1
2015-02-15 00:05:00,3.0,1.87622,0.00032,397.651,0.036,0.0043,0.0017,140.002,45.000,31276.89289,1.87633,397.672,31.620,45.068,45.000,0.00,0.10,-272.69,-272.75,-13,513,0,18.5,7.1,-17.9,18.9,7.9,-16.2,5.73,2.55,-14.1,24.2
2015-02-15 00:06:00,3.0,1.87608,0.00031,397.657,0.034,0.0037,0.0020,139.998,45.000,31307.00115,1.87614,397.675,31.620,45.068,45.000,0.00,0.10,-272.69,-272.75,-14,514,0,18.5,7.1,-17.9,18.9,7.9,-16.2,5.73,2.52,-14.1,24.1
2015-02-15 00:07:00,3.0,1.87614,0.00038,397.636,0.034,0.0025,0.0023,140.004,45.000,31336.82520,1.87618,397.649,31.588,45.068,45.000,0.00,0.10,-272.68,-272.74,-14,515,0,18.5,7.1,-17.9,19.0,7.9,-16.2,5.73,2.55,-14.1,24.1
2015-02-15 00:08:00,3.0,1.87650,0.00025,397.657,0.021,0.0020,0.0016,140.003,45.000,31359.63107,1.87653,397.666,31.563,45.068,45.000,0.00,0.10,-272.69,-272.75,-14,515,0,18.5,7.0,-17.9,19.0,7.9,-16.2,5.73,2.57,-14.1,24.1
2015-02-15 00:09:00,3.0,1.87635,0.00034,397.674,0.023,0.0023,0.0019,140.004,45.000,31376.40135,1.87637,397.685,31.557,45.068,45.000,0.00,0.10,-272.69,-272.75,-14,516,0,18.5,7.1,-17.8,19.0,7.9,-16.2,5.73,2.59,-14.1,24.2
2015-02-15 00:10:00,3.0,1.87642,0.00042,397.643,0.035,0.0020,0.0024,140.001,45.000,31392.37060,1.87647,397.653,31.534,45.068,45.000,0.00,0.10,-272.68,-272.74,-14,516,0,18.6,7.0,-17.8,19.0,7.9,-16.2,5.73,2.64,-14.1,24.2
2015-02-15 00:11:00,3.0,1.87650,0.00033,397.679,0.029,0.0003,0.0016,140.001,45.000,31405.42918,1.87652,397.681,31.525,45.068,45.000,0.00,0.10,-272.68,-272.75,-14,516,0,18.6,7.1,-17.8,19.0,7.9,-16.2,5.73,2.63,-14.2,24.3
2015-02-15 00:12:00,3.0,1.87627,0.00033,397.681,0.029,0.0004,0.0014,140.000,45.000,31417.60209,1.87627,397.682,31.520,45.069,45.000,0.00,0.10,-272.68,-272.75,-14,516,0,18.6,7.1,-17.8,19.0,7.9,-16.2,5.73,2.59,-14.2,24.3
2015-02-15 00:13:00,3.0,1.87647,0.00030,397.690,0.031,0.0002,0.0019,140.001,45.000,31426.73622,1.87646,397.692,31.534,45.069,45.000,0.00,0.10,-272.69,-272.75,-13,516,0,18.7,7.0,-17.8,19.0,7.9,-16.2,5.73,2.52,-14.2,24.3
2015-02-15 00:14:00,3.0,1.87660,0.00039,397.656,0.029,0.0004,0.0027,139.998,45.000,31435.12045,1.87661,397.658,31.516,45.068,45.000,0.00,0.10,-272.69,-272.74,-13,516,0,18.7,7.0,-17.8,19.0,7.9,-16.2,5.73,2.42,-14.2,24.3
2015-02-15 00:15:00,3.0,1.87637,0.00035,397.684,0.034,0.0002,0.0017,140.000,45.000,31442.23957,1.87639,397.684,31.503,45.068,45.000,0.00,0.10,-272.69,-272.75,-13,517,0,18.7,7.0,-17.8,19.1,7.9,-16.2,5.73,2.48,-14.2,24.3
2015-02-15 00:16:00,3.0,1.87626,0.00034,397.681,0.034,0.0005,0.0020,140.000,45.000,31450.34512,1.87628,397.684,31.509,45.068,45.000,0.00,0.10,-272.69,-272.74,-14,517,0,18.7,7.0,-17.8,19.1,7.9,-16.2,5.73,2.56,-14.2,24.3
2015-02-15 00:17:00,3.0,1.87626,0.00033,397.696,0.025,-0.0003,0.0014,139.998,45.000,31455.10690,1.87626,397.696,31.501,45.068,45.000,0.00,0.10,-272.69,-272.74,-14,517,0,18.8,7.0,-17.8,19.1,7.9,-16.1,5.73,2.54,-14.2,24.3
2015-02-15 00:18:00,3.0,1.87621,0.00030,397.675,0.027,0.0001,0.0013,139.998,45.000,31460.88797,1.87622,397.675,31.498,45.068,45.000,0.00,0.10,-272.69,-272.75,-14,517,0,18.8,6.9,-17.9,19.1,7.8,-16.1,5.73,2.57,-14.2,24.4
2015-02-15 00:19:00,3.0,1.87617,0.00034,397.666,0.033,-0.0009,0.0016,140.000,45.000,31466.80804,1.87615,397.663,31.493,45.068,45.000,0.00,0.10,-272.68,-272.75,-14,517,0,18.8,6.9,-17.9,19.1,7.8,-16.2,5.73,2.58,-14.2,24.4
2015-02-15 00:20:00,0.0,1.93492,0.03211,405.412,3.601,0.1561,0.0678,139.692,45.000,28137.75418,1.93504,405.971,31.478,45.068,45.000,0.00,0.10,-272.68,-272.74,-14,18,0,18.9,6.9,-17.9,19.1,7.8,-16.2,5.73,2.55,-14.2,24.4
2015-02-15 00:21:00,0.0,1.94811,0.00040,406.985,0.031,0.1951,0.0017,139.994,45.000,27930.86550,1.95188,407.943,31.466,45.068,45.000,0.00,0.10,-272.69,-272.75,-14,19,0,18.9,6.8,-18.0,19.2,7.8,-16.2,5.73,2.57,-14.2,24.5
2015-02-15 00:22:00,0.0,1.94807,0.00038,406.987,0.027,0.1953,0.0020,139.997,45.000,27882.47396,1.95184,407.949,31.451,45.068,45.000,0.00,0.10,-272.69,-272.75,-14,19,0,18.9,6.8,-18.0,19.2,7.8,-16.2,5.73,2.59,-14.2,24.4
2015-02-15 00:23:00,0.0,1.94818,0.00032,406.986,0.031,0.1968,0.0015,139.997,45.000,27841.69351,1.95195,407.954,31.448,45.068,45.000,0.00,0.10,-272.69,-272.75,-14,19,0,18.9,6.8,-18.0,19.2,7.8,-16.2,5.73,2.61,-14.2,24.5
2015-02-15 00:24:00,0.0,1.94813,0.00034,406.993,0.033,0.1965,0.0019,139.994,45.000,27805.90371,1.95192,407.958,31.443,45.068,45.000,0.00,0.10,-272.69,-272.75,-14,19,0,19.0,6.8,-18.0,19.2,7.8,-16.2,5.73,2.64,-14.2,24.5
2015-02-15 00:25:00,0.0,1.94828,0.00038,406.986,0.035,0.1964,0.0018,139.997,45.000,27778.32719,1.95205,407.951,31.444,45.068,45.000,0.00,0.10,-272.69,-272.75,-14,19,0,19.0,6.7,-18.1,19.2,7.8,-16.2,5.73,2.64,-14.2,24.5
2015-02-15 00:26:00,0.0,1.94846,0.00027,406.984,0.030,0.1956,0.0022,139.998,45.000,27755.45197,1.95222,407.946,31.450,45.068,45.000,0.00,0.10,-272.68,-272.75,-14,19,0,19.0,6.7,-18.0,19.3,7.8,-16.1,5.73,2.63,-14.2,24.5
2015-02-15 00:27:00,0.0,1.94829,0.00033,406.976,0.038,0.1954,0.0014,140.000,45.000,27736.37054,1.95207,407.937,31.487,45.068,45.000,0.00,0.10,-272.68,-272.74,-14,19,0,19.0,6.7,-18.0,19.3,7.8,-16.1,5.73,2.60,-14.2,24.5
2015-02-15 00:28:00,0.0,1.94863,0.00040,407.016,0.031,0.1975,0.0016,140.000,45.000,27716.95882,1.95243,407.986,31.491,45.068,45.000,0.00,0.10,-272.69,-272.75,-14,19,0,19.1,6.7,-18.0,19.3,7.8,-16.2,5.73,2.57,-14.2,24.6
2015-02-15 00:29:00,0.0,1.94870,0.00038,406.996,0.025,0.1970,0.0013,140.002,45.000,27702.07798,1.95251,407.966,31.477,45.068,45.000,0.00,0.10,-272.69,-272.75,-14,19,0,19.1,6.7,-18.0,19.3,7.8,-16.2,5.73,2.57,-14.2,24.6
2015-02-15 00:30:00,0.0,1.94890,0.00038,407.032,0.025,0.1972,0.0019,139.996,45.000,27687.48025,1.95268,408.000,31.472,45.068,45.000,0.00,0.10,-272.69,-272.75,-14,19,0,19.1,6.7,-18.0,19.3,7.8,-16.2,5.73,2.56,-14.2,24.6
2015-02-15 00:31:00,0.0,1.94879,0.00044,407.026,0.038,0.1968,0.0016,139.999,45.000,27678.28974,1.95259,407.994,31.472,45.068,45.000,0.00,0.10,-272.69,-272.74,-14,19,0,19.1,6.7,-18.0,19.3,7.8,-16.1,5.73,2.58,-14.2,24.6
2015-02-15 00:32:00,0.0,1.94874,0.00031,407.036,0.038,0.1976,0.0016,139.998,45.000,27669.69348,1.95254,408.007,31.442,45.068,45.000,0.00,0.10,-272.69,-272.75,-14,19,0,19.1,6.7,-18.0,19.3,7.7,-16.2,5.73,2.60,-14.2,24.6
2015-02-15 00:33:00,0.0,1.94901,0.00036,407.040,0.026,0.1968,0.0015,139.999,45.000,27661.94342,1.95283,408.009,31.439,45.068,45.000,0.00,0.10,-272.69,-272.74,-14,19,0,19.1,6.7,-18.0,19.3,7.8,-16.2,5.73,2.62,-14.2,24.6
2015-02-15 00:34:00,0.0,1.94892,0.00036,407.031,0.032,0.1978,0.0022,140.000,45.000,27656.15946,1.95272,408.003,31.432,45.068,45.000,0.00,0.10,-272.69,-272.74,-14,19,0,19.1,6.7,-18.0,19.3,7.8,-16.2,5.73,2.63,-14.2,24.5
2015-02-15 00:35:00,0.0,1.94902,0.00038,407.036,0.035,0.1976,0.0020,140.000,45.000,27650.85505,1.95280,408.006,31.389,45.068,45.000,0.00,0.10,-272.69,-272.75,-14,19,0,19.1,6.7,-18.0,19.3,7.7,-16.2,5.73,2.63,-14.2,24.5
2015-02-15 00:36:00,0.0,1.94901,0.00040,407.058,0.025,0.1971,0.0014,140.000,45.000,27646.20088,1.95283,408.027,31.377,45.068,45.000,0.00,0.10,-272.68,-272.75,-14,19,0,19.1,6.7,-18.0,19.3,7.8,-16.1,5.73,2.64,-14.2,24.5
2015-02-15 00:37:00,0.0,1.94916,0.00033,407.046,0.033,0.1980,0.0020,139.999,45.000,27642.07972,1.95298,408.019,31.375,45.068,45.000,0.00,0.10,-272.68,-272.75,-14,19,0,19.1,6.7,-18.0,19.3,7.8,-16.1,5.73,2.62,-14.2,24.6
2015-02-15 00:38:00,0.0,1.94901,0.00046,407.044,0.027,0.1982,0.0014,140.000,45.000,27640.51711,1.95282,408.019,31.375,45.069,45.000,0.00,0.10,-272.68,-272.75,-14,19,0,19.1,6.7,-18.0,19.3,7.7,-16.1,5.73,2.61,-14.2,24.6
2015-02-15 00:39:00,0.0,1.94898,0.00033,407.034,0.032,0.1988,0.0012,139.997,45.000,27637.01431,1.95283,408.011,31.367,45.068,45.000,0.00,0.10,-272.68,-272.75,-14,19,0,19.1,6.8,-17.9,19.4,7.8,-16.1,5.73,2.58,-14.2,24.6
2015-02-15 00:40:00,0.0,1.94914,0.00035,407.051,0.021,0.1990,0.0015,139.999,45.000,27634.12277,1.95297,408.029,31.359,45.068,45.000,0.00,0.10,-272.68,-272.74,-14,19,0,19.1,6.8,-17.9,19.4,7.8,-16.1,5.73,2.57,-14.2,24.6
2015-02-15 00:41:00,0.0,1.94919,0.00029,407.067,0.032,0.1998,0.0016,139.998,45.000,27630.31041,1.95302,408.050,31.336,45.068,45.000,0.00,0.10,-272.69,-272.74,-14,19,0,19.1,6.8,-17.9,19.4,7.8,-16.1,5.73,2.59,-14.2,24.6
2015-02-15 00:42:00,0.0,1.94957,0.00049,407.080,0.019,0.2001,0.0017,140.002,45.000,27628.40187,1.95343,408.064,31.319,45.069,45.000,0.00,0.10,-272.70,-272.75,-14,19,0,19.1,6.8,-17.9,19.3,7.7,-16.1,5.73,2.60,-14.2,24.6
2015-02-15 00:43:00,0.0,1.94925,0.00038,407.053,0.026,0.2008,0.0020,140.000,45.000,27627.85109,1.95315,408.041,31.324,45.069,45.000,0.00,0.10,-272.69,-272.75,-14,19,0,19.1,6.8,-17.8,19.4,7.8,-16.1,5.73,2.60,-14.2,24.6
2015-02-15 00:44:00,0.0,1.94951,0.00038,407.073,0.032,0.2009,0.0014,140.001,45.000,27626.76674,1.95336,408.060,31.315,45.068,45.000,0.00,0.10,-272.69,-272.74,-14,19,0,19.1,6.8,-17.8,19.3,7.8,-16.1,5.73,2.62,-14.2,24.6
2015-02-15 00:45:00,0.0,1.94975,0.00038,407.057,0.035,0.2030,0.0016,139.999,45.000,27624.18237,1.95364,408.056,31.314,45.069,45.000,0.00,0.10,-272.69,-272.75,-14,19,0,19.1,6.9,-17.7,19.3,7.7,-16.1,5.73,2.63,-14.2,24.6
2015-02-15 00:46:00,0.0,1.94953,0.00034,407.071,0.026,0.2020,0.0017,140.001,45.000,27624.10019,1.95342,408.065,31.313,45.068,45.000,0.00,0.10,-272.69,-272.75,-14,19,0,19.0,6.9,-17.7,19.3,7.8,-16.1,5.73,2.62,-14.2,24.6
2015-02-15 00:47:00,0.0,1.94958,0.00035,407.052,0.041,0.2034,0.0019,139.999,45.000,27622.82601,1.95351,408.051,31.317,45.068,45.000,0.00,0.10,-272.68,-272.74,-13,19,0,19.0,6.9,-17.7,19.3,7.7,-16.2,5.73,2.62,-14.2,24.6
2015-02-15 00:48:00,0.0,1.94951,0.00026,407.066,0.038,0.2033,0.0016,139.999,45.000,27623.52543,1.95344,408.068,31.325,45.068,45.000,0.00,0.10,-272.68,-272.75,-14,19,0,19.0,7.0,-17.7,19.3,7.7,-16.2,5.73,2.60,-14.2,24.5
2015-02-15 00:49:00,0.0,1.94931,0.00031,407.045,0.028,0.2036,0.0017,140.002,45.000,27624.09344,1.95321,408.045,31.338,45.068,45.000,0.00,0.10,-272.69,-272.75,-14,19,0,19.0,7.0,-17.7,19.3,7.8,-16.1,5.73,2.60,-14.2,24.5
2015-02-15 00:50:00,0.0,1.94959,0.00036,407.077,0.027,0.2033,0.0017,140.000,45.000,27622.37147,1.95352,408.078,31.321,45.068,44.999,0.00,0.10,-272.68,-272.74,-14,19,0,19.0,7.0,-17.6,19.3,7.8,-16.1,5.73,2.58,-14.2,24.6
2015-02-15 00:51:00,0.0,1.94950,0.00036,407.071,0.030,0.2043,0.0020,139.996,45.000,27620.87408,1.95345,408.078,31.317,45.068,44.999,0.00,0.10,-272.68,-272.75,-14,19,0,19.0,7.0,-17.7,19.3,7.8,-16.2,5.73,2.53,-14.2,24.6
2015-02-15 00:52:00,0.0,1.94966,0.00035,407.073,0.029,0.2040,0.0017,140.002,45.000,27623.21361,1.95360,408.076,31.313,45.068,45.000,0.00,0.10,-272.69,-272.76,-13,19,0,18.9,7.0,-17.7,19.3,7.8,-16.2,5.73,2.56,-14.2,24.6
2015-02-15 00:53:00,0.0,1.94989,0.00037,407.093,0.032,0.2036,0.0017,140.000,45.000,27620.94523,1.95381,408.095,31.313,45.068,45.000,0.00,0.10,-272.69,-272.75,-13,19,0,18.9,7.0,-17.7,19.3,7.8,-16.2,5.73,2.59,-14.2,24.6
2015-02-15 00:54:00,0.0,1.94987,0.00042,407.097,0.045,0.2022,0.0016,140.000,45.000,27621.30204,1.95378,408.092,31.336,45.068,45.000,0.00,0.10,-272.68,-272.74,-13,19,0,19.0,7.0,-17.7,19.3,7.7,-16.2,5.73,2.60,-14.2,24.5
2015-02-15 00:55:00,0.0,1.94996,0.00032,407.101,0.037,0.2035,0.0019,139.996,45.000,27620.05148,1.95387,408.103,31.370,45.068,45.000,0.00,0.10,-272.69,-272.74,-13,19,0,19.0,6.9,-17.7,19.3,7.8,-16.2,5.73,2.58,-14.2,24.5
2015-02-15 00:56:00,0.0,1.95015,0.00033,407.144,0.036,0.2028,0.0020,140.001,45.000,27620.64466,1.95403,408.141,31.370,45.068,45.000,0.00,0.10,-272.70,-272.75,-13,19,0,19.0,6.9,-17.8,19.3,7.8,-16.2,5.73,2.60,-14.2,24.6
2015-02-15 00:57:00,0.0,1.95017,0.00047,407.154,0.016,0.2012,0.0020,140.001,45.000,27620.41852,1.95407,408.144,31.372,45.068,45.000,0.00,0.10,-272.69,-272.74,-13,19,0,19.0,6.9,-17.8,19.3,7.7,-16.2,5.73,2.63,-14.2,24.6
2015-02-15 00:58:00,0.0,1.95003,0.00033,407.132,0.035,0.2010,0.0022,139.999,45.000,27619.97735,1.95391,408.121,31.342,45.068,44.999,0.00,0.10,-272.69,-272.74,-13,18,0,18.9,6.9,-17.9,19.3,7.8,-16.2,5.73,2.63,-14.2,24.6
2015-02-15 00:59:00,0.0,1.95036,0.00042,407.140,0.031,0.2007,0.0020,139.999,45.000,27619.19829,1.95420,408.127,31.316,45.068,45.000,0.00,0.10,-272.70,-272.75,-13,18,0,18.9,6.9,-17.9,19.3,7.8,-16.2,5.73,2.61,-14.2,24.6
2015-02-15 01:00:00,0.0,1.95006,0.00024,407.139,0.036,0.2001,0.0021,140.003,45.000,27621.18599,1.95395,408.124,31.302,45.068,45.000,0.00,0.10,-272.68,-272.74,-13,19,0,18.9,6.9,-17.9,19.3,7.8,-16.2,5.73,2.59,-14.3,24.5
2015-02-15 01:01:00,0.0,1.95018,0.00040,407.117,0.037,0.2004,0.0017,139.999,45.000,27620.45021,1.95404,408.103,31.259,45.068,45.000,0.00,0.10,-272.68,-272.74,-13,18,0,18.9,6.9,-17.9,19.2,7.8,-16.2,5.73,2.62,-14.3,24.5
2015-02-15 01:02:00,0.0,1.95002,0.00044,407.142,0.035,0.2001,0.0017,140.003,45.000,27621.57848,1.95386,408.125,31.250,45.069,45.000,0.00,0.10,-272.69,-272.75,-13,18,0,18.9,6.9,-17.9,19.2,7.8,-16.2,5.73,2.60,-14.3,24.5
2015-02-15 01:03:00,0.0,1.95009,0.00031,407.129,0.024,0.2011,0.0018,140.000,45.000,27621.28818,1.95397,408.119,31.248,45.069,45.000,0.00,0.10,-272.69,-272.75,-13,19,0,18.9,6.9,-17.9,19.2,7.8,-16.2,5.73,2.59,-14.3,24.5
2015-02-15 01:04:00,0.0,1.95013,0.00031,407.139,0.035,0.2004,0.0015,139.997,45.000,27620.50277,1.95400,408.124,31.250,45.069,45.000,0.00,0.10,-272.69,-272.75,-13,18,0,18.9,6.9,-17.9,19.2,7.8,-16.2,5.73,2.59,-14.3,24.5
2015-02-15 01:05:00,0.0,1.95032,0.00033,407.146,0.026,0.1996,0.0017,139.998,45.000,27620.18755,1.95416,408.129,31.250,45.069,45.000,0.00,0.10,-272.69,-272.75,-13,19,0,18.9,6.9,-17.9,19.2,7.8,-16.2,5.73,2.57,-14.2,24.5
2015-02-15 01:06:00,0.0,1.95016,0.00038,407.133,0.025,0.2013,0.0017,139.998,45.000,27620.90051,1.95404,408.123,31.251,45.069,45.000,0.00,0.10,-272.69,-272.76,-13,18,0,18.9,6.9,-17.9,19.2,7.8,-16.2,5.73,2.58,-14.3,24.5
2015-02-15 01:07:00,0.0,1.95024,0.00024,407.113,0.030,0.2002,0.0017,140.005,45.000,27623.33367,1.95409,408.098,31.242,45.068,45.000,0.00,0.10,-272.69,-272.75,-13,18,0,18.8,6.9,-17.9,19.2,7.8,-16.2,5.73,2.59,-14.3,24.5
2015-02-15 01:08:00,0.0,1.95005,0.00036,407.122,0.043,0.2020,0.0013,139.998,45.000,27618.72420,1.95397,408.114,31.221,45.068,45.000,0.00,0.10,-272.69,-272.74,-13,18,0,18.8,7.0,-17.8,19.2,7.8,-16.2,5.73,2.58,-14.3,24.4
2015-02-15 01:09:00,0.0,1.95009,0.00040,407.158,0.031,0.2027,0.0015,140.001,45.000,27619.47669,1.95397,408.157,31.200,45.068,45.000,0.00,0.10,-272.70,-272.74,-13,18,0,18.8,7.0,-17.8,19.2,7.8,-16.2,5.73,2.54,-14.3,24.4
2015-02-15 01:10:00,0.0,1.95021,0.00034,407.119,0.016,0.2039,0.0015,140.002,45.000,27620.14752,1.95412,408.121,31.189,45.068,45.000,0.00,0.10,-272.69,-272.74,-13,18,0,18.8,7.0,-17.7,19.2,7.8,-16.2,5.73,2.60,-14.3,24.5
2015-02-15 01:11:00,0.0,1.95037,0.00039,407.142,0.025,0.2047,0.0014,140.000,45.000,27619.02393,1.95433,408.149,31.193,45.068,45.000,0.00,0.10,-272.69,-272.74,-13,18,0,18.8,7.0,-17.7,19.2,7.8,-16.3,5.73,2.60,-14.3,24.5
2015-02-15 01:12:00,0.0,1.95020,0.00028,407.133,0.035,0.2046,0.0017,139.998,45.000,27620.40867,1.95415,408.139,31.223,45.068,45.000,0.00,0.10,-272.69,-272.75,-13,19,0,18.8,7.0,-17.7,19.2,7.7,-16.3,5.73,2.59,-14.3,24.5
2015-02-15 01:13:00,0.0,1.95012,0.00031,407.144,0.034,0.2049,0.0018,140.001,45.000,27620.75123,1.95408,408.152,31.193,45.068,45.000,0.00,0.10,-272.69,-272.75,-13,19,0,18.8,7.0,-17.7,19.2,7.8,-16.3,5.73,2.62,-14.3,24.5
2015-02-15 01:14:00,0.0,1.95014,0.00032,407.114,0.045,0.2066,0.0013,139.999,45.000,27620.14589,1.95411,408.130,31.203,45.068,45.000,0.00,0.10,-272.69,-272.74,-13,19,0,18.8,7.1,-17.6,19.1,7.8,-16.3,5.73,2.63,-14.3,24.4
2015-02-15 01:15:00,0.0,1.95047,0.00036,407.120,0.034,0.2059,0.0015,140.000,45.000,27617.26066,1.95441,408.133,31.203,45.068,45.000,0.00,0.10,-272.69,-272.75,-14,18,0,18.8,7.1,-17.6,19.1,7.8,-16.3,5.73,2.62,-14.3,24.4
2015-02-15 01:16:00,0.0,1.95039,0.00031,407.151,0.032,0.2060,0.0019,139.998,45.000,27616.96927,1.95438,408.164,31.191,45.068,45.000,0.00,0.10,-272.69,-272.74,-14,18,0,18.8,7.1,-17.6,19.1,7.8,-16.3,5.73,2.63,-14.3,24.5
2015-02-15 01:17:00,0.0,1.95029,0.00036,407.102,0.038,0.2063,0.0016,140.004,45.000,27621.67603,1.95429,408.119,31.188,45.068,45.000,0.00,0.10,-272.69,-272.75,-13,18,0,18.8,7.1,-17.6,19.1,7.8,-16.3,5.73,2.62,-14.3,24.5
2015-02-15 01:18:00,0.0,1.95036,0.00035,407.101,0.044,0.2051,0.0020,139.999,45.000,27620.40357,1.95430,408.112,31.186,45.068,45.000,0.00,0.10,-272.69,-272.75,-13,18,0,18.8,7.1,-17.6,19.1,7.8,-16.3,5.73,2.61,-13.9,24.5
2015-02-15 01:19:00,0.0,1.95037,0.00031,407.131,0.033,0.2034,0.0015,140.000,45.000,27620.85525,1.95432,408.131,31.183,45.068,45.000,0.00,0.10,-272.69,-272.75,-13,18,0,18.8,7.0,-17.7,19.1,7.8,-16.3,5.73,2.61,-13.2,24.5
2015-02-15 01:20:00,0.0,1.95026,0.00031,407.135,0.028,0.2030,0.0021,139.999,45.000,27621.93669,1.95416,408.133,31.188,45.068,45.000,0.00,0.10,-272.68,-272.75,-13,18,0,18.8,7.0,-17.8,19.1,7.8,-16.2,5.73,2.59,-13.3,24.5
2015-02-15 01:21:00,0.0,1.95044,0.00039,407.151,0.034,0.2010,0.0012,139.998,45.000,27621.22575,1.95428,408.140,31.188,45.068,45.000,0.00,0.10,-272.68,-272.75,-13,18,0,18.7,7.0,-17.9,19.1,7.8,-16.3,5.73,2.54,-13.4,24.4
2015-02-15 01:22:00,0.0,1.95070,0.00042,407.168,0.021,0.2007,0.0022,139.999,45.000,27620.83462,1.95459,408.155,31.186,45.068,45.000,0.00,0.10,-272.69,-272.75,-13,18,0,18.7,6.9,-18.0,19.1,7.8,-16.3,5.73,2.59,-13.5,24.4
2015-02-15 01:23:00,0.0,1.95086,0.00034,407.193,0.042,0.1996,0.0012,140.002,45.000,27621.44664,1.95471,408.175,31.195,45.068,45.000,0.00,0.10,-272.68,-272.75,-13,19,0,18.7,6.9,-18.0,19.1,7.8,-16.2,5.73,2.55,-13.6,24.4
2015-02-15 01:24:00,0.0,1.95056,0.00030,407.186,0.034,0.1984,0.0021,140.000,45.000,27620.75678,1.95439,408.163,31.232,45.068,45.000,0.00,0.10,-272.68,-272.74,-13,18,0,18.7,6.9,-18.0,19.1,7.8,-16.3,5.73,2.58,-13.6,24.4
2015-02-15 01:25:00,0.0,1.95069,0.00032,407.195,0.031,0.1971,0.0014,140.002,45.000,27621.60013,1.95448,408.165,31.238,45.068,44.999,0.00,0.10,-272.69,-272.75,-13,18,0,18.7,6.8,-18.2,19.1,7.8,-16.3,5.73,2.60,-13.7,24.4
2015-02-15 01:26:00,0.0,1.95092,0.00038,407.184,0.030,0.1962,0.0013,140.004,45.000,27620.67893,1.95470,408.149,31.250,45.068,44.999,0.00,0.10,-272.69,-272.75,-13,18,0,18.7,6.8,-18.2,19.1,7.8,-16.3,5.73,2.61,-13.7,24.4
2015-02-15 01:27:00,0.0,1.95077,0.00034,407.199,0.030,0.1953,0.0020,140.000,45.000,27620.38269,1.95454,408.160,31.249,45.068,44.999,0.00,0.10,-272.69,-272.74,-13,18,0,18.7,6.8,-18.2,19.1,7.8,-16.3,5.73,2.56,-13.8,24.4
2015-02-15 01:28:00,0.0,1.95093,0.00042,407.196,0.028,0.1954,0.0023,140.002,45.000,27621.49258,1.95469,408.157,31.245,45.068,45.000,0.00,0.10,-272.68,-272.75,-13,18,0,18.7,6.7,-18.2,19.1,7.8,-16.3,5.73,2.51,-13.8,24.4
2015-02-15 01:29:00,0.0,1.95119,0.00035,407.225,0.026,0.1934,0.0016,140.000,45.000,27621.22627,1.95491,408.176,31.231,45.068,45.000,0.00,0.10,-272.69,-272.75,-13,18,0,18.7,6.7,-18.3,19.1,7.8,-16.3,5.73,2.59,-13.9,24.4
2015-02-15 01:30:00,0.0,1.95125,0.00040,407.239,0.030,0.1933,0.0016,139.998,45.000,27619.27186,1.95498,408.190,31.211,45.068,45.000,0.00,0.10,-272.69,-272.75,-13,18,0,18.7,6.7,-18.4,19.1,7.8,-16.3,5.73,2.63,-13.9,24.4
2015-02-15 01:31:00,0.0,1.95120,0.00036,407.255,0.026,0.1929,0.0017,140.001,45.000,27620.24609,1.95496,408.204,31.193,45.068,45.000,0.00,0.10,-272.68,-272.74,-13,18,0,18.7,6.7,-18.4,19.1,7.8,-16.3,5.73,2.63,-13.9,24.4
2015-02-15 01:32:00,0.0,1.95147,0.00037,407.261,0.027,0.1927,0.0015,140.002,45.000,27619.61146,1.95515,408.209,31.190,45.069,45.000,0.00,0.10,-272.69,-272.75,-13,18,0,18.7,6.6,-18.4,19.0,7.8,-16.3,5.73,2.63,-13.9,24.3
2015-02-15 01:33:00,0.0,1.95131,0.00042,407.270,0.037,0.1912,0.0020,139.998,45.000,27619.53980,1.95501,408.210,31.188,45.069,45.000,0.00,0.10,-272.69,-272.75,-13,18,0,18.7,6.6,-18.4,19.0,7.8,-16.3,5.73,2.63,-14.0,24.4
2015-02-15 01:34:00,0.0,1.95166,0.00048,407.268,0.033,0.1908,0.0019,140.000,45.000,27619.81089,1.95536,408.207,31.188,45.069,45.000,0.00,0.10,-272.68,-272.75,-13,18,0,18.7,6.6,-18.6,19.0,7.8,-16.3,5.73,2.63,-14.0,24.3
2015-02-15 01:35:00,0.0,1.95188,0.00047,407.305,0.034,0.1919,0.0011,140.001,45.000,27621.96614,1.95552,408.250,31.188,45.069,45.000,0.00,0.10,-272.68,-272.75,-13,18,0,18.7,6.6,-18.5,19.0,7.8,-16.3,5.73,2.60,-14.0,24.4
2015-02-15 01:36:00,0.0,1.95181,0.00033,407.299,0.032,0.1911,0.0021,140.001,45.000,27622.94742,1.95550,408.239,31.187,45.068,45.000,0.00,0.10,-272.69,-272.76,-13,18,0,18.7,6.6,-18.5,19.0,7.8,-16.3,5.73,2.61,-14.1,24.4
2015-02-15 01:37:00,0.0,1.95180,0.00042,407.289,0.037,0.1900,0.0013,140.003,45.000,27624.63262,1.95548,408.222,31.189,45.068,45.000,0.00,0.10,-272.69,-272.75,-13,19,0,18.7,6.6,-18.5,19.0,7.8,-16.3,5.73,2.61,-14.1,24.4
2015-02-15 01:38:00,0.0,1.95179,0.00034,407.305,0.019,0.1903,0.0017,140.001,45.000,27624.72100,1.95546,408.242,31.188,45.069,45.000,0.00,0.10,-272.69,-272.74,-13,19,0,18.7,6.6,-18.5,19.0,7.8,-16.4,5.73,2.58,-14.1,24.3
2015-02-15 01:39:00,0.0,1.95202,0.00029,407.312,0.023,0.1907,0.0019,139.998,45.000,27625.47756,1.95570,408.250,31.188,45.069,45.000,0.00,0.10,-272.69,-272.75,-13,19,0,18.7,6.6,-18.5,19.0,7.8,-16.3,5.73,2.59,-14.1,24.4
2015-02-15 01:40:00,0.0,1.95181,0.00046,407.294,0.025,0.1915,0.0015,139.998,45.000,27627.22766,1.95549,408.236,31.188,45.068,45.000,0.00,0.10,-272.69,-272.75,-13,19,0,18.7,6.6,-18.5,19.0,7.8,-16.3,5.73,2.60,-14.1,24.3
2015-02-15 01:41:00,0.0,1.95203,0.00029,407.317,0.039,0.1903,0.0014,140.000,45.000,27627.85683,1.95571,408.253,31.189,45.068,45.000,0.00,0.10,-272.68,-272.74,-13,19,0,18.7,6.6,-18.5,19.0,7.8,-16.3,5.73,2.58,-14.1,24.4
2015-02-15 01:42:00,0.0,1.95223,0.00036,407.333,0.033,0.1892,0.0017,140.000,45.000,27627.98249,1.95587,408.264,31.198,45.068,45.000,0.00,0.10,-272.68,-272.75,-13,19,0,18.7,6.6,-18.6,19.0,7.8,-16.3,5.73,2.60,-14.1,24.3
2015-02-15 01:43:00,0.0,1.95243,0.00035,407.341,0.041,0.1893,0.0018,139.998,45.000,27627.83819,1.95607,408.273,31.205,45.068,45.000,0.00,0.10,-272.69,-272.75,-13,19,0,18.7,6.6,-18.6,19.0,7.8,-16.3,5.73,2.59,-14.2,24.3
2015-02-15 01:44:00,0.0,1.95249,0.00029,407.343,0.021,0.1888,0.0013,140.001,45.000,27629.87012,1.95615,408.271,31.222,45.068,45.000,0.00,0.10,-272.69,-272.74,-13,19,0,18.7,6.5,-18.6,19.0,7.8,-16.3,5.73,2.60,-14.2,24.4
2015-02-15 01:45:00,0.0,1.95253,0.00045,407.375,0.029,0.1878,0.0017,140.000,45.000,27630.88222,1.95618,408.299,31.210,45.068,45.000,0.00,0.10,-272.68,-272.75,-13,19,0,18.7,6.5,-18.7,19.0,7.8,-16.3,5.73,2.61,-14.2,24.3
2015-02-15 01:46:00,0.0,1.95254,0.00043,407.379,0.033,0.1871,0.0017,140.002,45.000,27632.44774,1.95612,408.300,31.221,45.068,45.000,0.00,0.10,-272.69,-272.75,-13,19,0,18.7,6.5,-18.7,19.0,7.8,-16.3,5.73,2.62,-14.2,24.3